Date String (YYYY-MM-DD hh:mm:ss) UTC,Instrument flags,Ambient pressure (hPa),Sample flow (lpm),Bypass flow (lpm),Sample temperature (°C),Ambient temperature (°C),ASC tube jacket temperature (°C),LED temperature (°C),Box temperature (°C),Sample RH (%),Span deviation,Mass concentration (μg/m³),Mass concentration (μg/m³),Mass concentration (μg/m³)
DateTimeUTC,F1_M11,P_M11,Q1_M11,Q2_M11,T1_M11,T2_M11,T3_M11,T4_M11,T5_M11,U1_M11,ZSPAN_M11,X0_M11,X2_M11,X1_M11
2022-11-11 17:00:00,,0828.7,5.01,0.00,22.7,21.8,00.0,31.4,24.6,10.6,0000.0,0012.56,0005.77,0004.76
2022-11-11 17:01:00,,0828.7,5.02,0.00,22.7,21.6,00.0,31.4,24.6,10.6,0000.0,0012.37,0005.73,0004.75
2022-11-11 17:02:00,,0828.9,4.99,0.00,22.7,21.5,00.0,31.4,24.6,10.6,0000.0,0011.97,0005.70,0004.76
2022-11-11 17:03:00,,0829.1,5.00,0.00,22.7,21.5,00.0,31.5,24.5,10.8,0000.0,0012.28,0005.66,0004.79
2022-11-11 17:04:00,,0829.0,5.02,0.00,22.7,21.6,00.0,31.5,24.5,10.8,-000.4,0011.89,0005.72,0004.86
2022-11-11 17:05:00,,0828.8,4.99,0.00,22.7,21.5,00.0,31.5,24.5,10.7,-001.0,0011.74,0005.77,0004.95
2022-11-11 17:06:00,,0828.9,4.99,0.00,22.7,21.4,00.0,31.5,24.5,10.8,-001.1,0011.37,0005.78,0005.00
2022-11-11 17:07:00,,0828.5,5.01,0.00,22.7,21.4,00.0,31.5,24.5,10.8,-001.4,0011.58,0005.81,0005.03
2022-11-11 17:08:00,,0828.7,4.98,0.00,22.7,21.4,00.0,31.5,24.5,10.8,-001.9,0011.86,0005.86,0005.06
2022-11-11 17:09:00,,0828.5,5.00,0.00,22.7,21.5,00.0,31.5,24.5,10.9,-001.7,0012.28,0005.94,0005.14
2022-11-11 17:10:00,,0828.5,5.01,0.00,22.7,21.5,00.0,31.5,24.5,10.9,-001.8,0012.49,0006.07,0005.25
2022-11-11 17:11:00,,0828.5,5.00,0.00,22.6,21.4,00.0,31.5,24.5,10.9,-002.0,0012.42,0006.17,0005.35
2022-11-11 17:12:00,,0828.4,4.98,0.00,22.6,21.4,00.0,31.5,24.5,10.8,-001.7,0012.33,0006.14,0005.34
2022-11-11 17:13:00,,0828.6,5.01,0.00,22.7,21.4,00.0,31.5,24.5,10.9,-001.0,0012.69,0006.19,0005.35
2022-11-11 17:14:00,,0828.9,5.01,0.00,22.6,21.4,00.0,31.5,24.5,10.7,-000.6,0012.54,0006.23,0005.37
2022-11-11 17:15:00,,0828.9,4.99,0.00,22.6,21.4,00.0,31.5,24.4,10.7,-000.3,0012.08,0006.22,0005.35
2022-11-11 17:16:00,,0829.1,5.01,0.00,22.6,21.4,00.0,31.5,24.4,10.7,-000.4,0012.09,0006.17,0005.29
2022-11-11 17:17:00,,0828.9,4.98,0.00,22.6,21.4,00.0,31.5,24.4,10.8,-000.4,0012.64,0006.15,0005.31
2022-11-11 17:18:00,,0828.8,5.01,0.00,22.6,21.3,00.0,31.5,24.4,10.8,-000.4,0012.45,0006.22,0005.39
2022-11-11 17:19:00,,0828.9,5.00,0.00,22.6,21.3,00.0,31.5,24.4,10.8,-000.2,0012.16,0006.33,0005.49
2022-11-11 17:20:00,,0828.6,4.99,0.00,22.6,21.3,00.0,31.5,24.4,10.8,0000.1,0012.06,0006.36,0005.51
2022-11-11 17:21:00,,0828.5,5.01,0.00,22.6,21.3,00.0,31.5,24.4,10.8,0000.4,0012.22,0006.33,0005.49
2022-11-11 17:22:00,,0828.5,4.99,0.00,22.6,21.3,00.0,31.4,24.4,10.9,0000.9,0012.15,0006.26,0005.45
2022-11-11 17:23:00,,0828.5,5.00,0.00,22.6,21.3,00.0,31.4,24.4,10.9,0000.8,0012.32,0006.38,0005.53
2022-11-11 17:24:00,,0828.5,5.02,0.00,22.6,21.3,00.0,31.4,24.4,10.8,0000.6,0012.25,0006.49,0005.67
2022-11-11 17:25:00,,0828.5,5.00,0.00,22.6,21.3,00.0,31.4,24.4,10.8,0000.2,0012.48,0006.68,0005.86
2022-11-11 17:26:00,,0828.5,5.01,0.00,22.6,21.2,00.0,31.4,24.3,10.7,0000.3,0013.02,0006.84,0006.03
2022-11-11 17:27:00,,0828.5,5.01,0.00,22.6,21.2,00.0,31.4,24.3,10.8,0000.4,0013.67,0006.99,0006.18
2022-11-11 17:28:00,,0828.4,4.99,0.00,22.5,21.1,00.0,31.4,24.3,10.8,0000.5,0013.02,0007.12,0006.28
2022-11-11 17:29:00,,0828.4,5.01,0.00,22.5,21.1,00.0,31.4,24.3,10.8,0000.5,0012.94,0007.16,0006.34
2022-11-11 17:30:00,,0828.4,5.00,0.00,22.5,21.1,00.0,31.4,24.3,10.8,0000.4,0012.85,0007.20,0006.40
2022-11-11 17:31:00,,0828.3,5.00,0.00,22.5,21.1,00.0,31.4,24.3,10.8,0000.0,0012.91,0007.25,0006.51
2022-11-11 17:32:00,,0828.3,5.00,0.00,22.5,21.2,00.0,31.4,24.3,10.8,-000.5,0013.06,0007.38,0006.64
2022-11-11 17:33:00,,0828.3,4.99,0.00,22.5,21.2,00.0,31.4,24.3,10.8,-000.6,0013.16,0007.49,0006.79
2022-11-11 17:34:00,,0828.4,5.00,0.00,22.5,21.2,00.0,31.4,24.3,10.9,-000.4,0013.22,0007.61,0006.94
2022-11-11 17:35:00,,0828.3,5.00,0.00,22.5,21.1,00.0,31.4,24.3,10.8,-000.3,0013.24,0007.74,0007.03
2022-11-11 17:36:00,,0828.3,4.99,0.00,22.5,21.0,00.0,31.4,24.3,10.9,0000.3,0013.19,0007.74,0007.04
2022-11-11 17:37:00,,0828.3,5.00,0.00,22.4,20.9,00.0,31.3,24.2,10.9,0000.6,0013.55,0008.01,0007.23
2022-11-11 17:38:00,,0828.3,5.01,0.00,22.4,21.0,00.0,31.3,24.3,10.9,0001.5,0015.26,0008.90,0007.86
2022-11-11 17:39:00,,0828.3,5.00,0.00,22.4,21.0,00.0,31.3,24.3,11.0,0001.7,0016.14,0009.47,0008.34
2022-11-11 17:40:00,,0828.3,4.98,0.00,22.4,21.0,00.0,31.3,24.3,11.1,0001.7,0016.26,0009.56,0008.42
2022-11-11 17:41:00,,0828.3,5.00,0.00,22.4,21.0,00.0,31.3,24.3,11.0,0001.8,0016.14,0009.59,0008.50
2022-11-11 17:42:00,,0828.3,4.99,0.00,22.4,21.0,00.0,31.3,24.3,11.0,0001.9,0016.27,0009.67,0008.59
2022-11-11 17:43:00,,0828.3,5.00,0.00,22.4,21.0,00.0,31.3,24.3,10.9,0002.0,0016.93,0009.76,0008.67
2022-11-11 17:44:00,,0828.3,5.00,0.00,22.4,21.1,00.0,31.3,24.3,11.0,0002.1,0017.32,0009.90,0008.74
2022-11-11 17:45:00,,0828.3,5.00,0.00,22.4,21.0,00.0,31.3,24.2,11.0,0002.0,0017.73,0009.94,0008.76
2022-11-11 17:46:00,,0828.3,5.01,0.00,22.4,21.0,00.0,31.3,24.2,11.0,0002.1,0018.57,0009.95,0008.81
2022-11-11 17:47:00,,0828.3,4.98,0.00,22.4,21.0,00.0,31.3,24.2,11.1,0001.8,0018.27,0010.00,0008.88
2022-11-11 17:48:00,,0828.2,5.02,0.00,22.4,21.0,00.0,31.3,24.2,11.2,0001.7,0017.63,0009.87,0008.82
2022-11-11 17:49:00,,0828.2,4.99,0.00,22.4,21.1,00.0,31.2,24.3,11.1,0000.9,0015.48,0009.10,0008.33
2022-11-11 17:50:00,,0828.2,4.99,0.00,22.4,21.1,00.0,31.2,24.3,11.1,0000.4,0014.75,0008.65,0008.01
2022-11-11 17:51:00,,0828.2,5.01,0.00,22.4,21.1,00.0,31.2,24.3,11.1,0000.4,0014.84,0008.73,0008.11
2022-11-11 17:52:00,,0828.2,4.99,0.00,22.4,21.1,00.0,31.2,24.3,11.1,0000.1,0015.06,0008.84,0008.17
2022-11-11 17:53:00,,0828.2,4.99,0.00,22.4,21.0,00.0,31.2,24.3,11.1,-000.1,0014.88,0008.91,0008.21
2022-11-11 17:54:00,,0828.1,5.01,0.00,22.4,21.0,00.0,31.2,24.2,11.1,-000.0,0014.85,0008.96,0008.26
2022-11-11 17:55:00,,0828.1,5.01,0.00,22.4,20.9,00.0,31.2,24.2,11.1,-000.0,0014.48,0008.94,0008.31
2022-11-11 17:56:00,,0828.1,4.99,0.00,22.4,20.9,00.0,31.2,24.2,11.1,0000.2,0014.42,0008.98,0008.37
2022-11-11 17:57:00,,0828.1,5.02,0.00,22.3,20.8,00.0,31.2,24.2,11.1,0000.0,0013.61,0009.01,0008.42
2022-11-11 17:58:00,,0828.0,4.99,0.00,22.3,20.7,00.0,31.2,24.2,11.1,-000.0,0013.42,0008.97,0008.38
2022-11-11 17:59:00,,0828.1,5.00,0.00,22.3,20.8,00.0,31.2,24.1,11.2,0000.0,0013.47,0008.96,0008.36
